SL-19 DEB, 23494

Orbit data source: Space-Track

SL-19 DEB, 23494 is space debris in LEO originally from a launch on Mon, 26 Dec 1994 UTC launched from the Tyuratam Missile And Space Complex (TTMTR). Debris objects in space refer to the collection of defunct objects orbiting the Earth. Examples of debris include non-operational satellites, rocket bodies, and fragments generated from explosions, collisions, or faulty payload assembly.

Loading next visibility...
Identifier
23494, 1994-085S
Orbit
LEO
Country
Flag of CISCIS
Related business
Manufacturer
Unknown
Mission
Spacecraft
Bus & Motor
Unknown
Mass
Unknown
Launch date (UTC)
1994-12-26 (31 years ago)
Launch vehicle
Unknown
Launch site
Tyuratam Missile And Space Complex (TTMTR)
Object type
Payload
Rocket body
Debris
Shape & HBR
Unknown shape, 0.1 m
Radar Cross Section
Medium (>0.1 m² and <1 m²)

Expand to show TLE details & history
Last TLE update: 3 days ago

TLE from 3 days ago
0 SL-19 DEB
1 23494U 94085S   26170.85870429  .00001058  00000-0  18100-1 0  9992
2 23494  64.9623  10.5754 0260909  53.8432  63.4312 11.69708283584356
Epoch: 2026-06-19T20:36Z
TLE epoch observation values (Epoch: 2026-06-19T20:36:32.050Z)
Latitude
51.80541°
Longitude
-62.85856°
Altitude
1,735.651 km
Speed
7.054 km/s
True Right ascension
10h 17m 25s
True Declination
51° 39' 30"
Sunlit
Object was in daylight at epoch
Visualization orbit readout
Latitude
Unknown
Longitude
Unknown
Altitude
Unknown
Speed
Unknown
Apparent Right ascension
Unknown
Apparent Declination
Unknown
Sunlit
N/A
Visualization observer readout
Local Sidereal Time
01:06:57
Azimuth
Unknown
Elevation
Unknown
Doppler factor
Unknown
Orbital elements
Apogee altitude
2,032.011 km
Perigee altitude
1,604.314 km
Semi-major axis
8,196.3 km
Eccentricity
0.02609
Inclination
64.9623°
RAAN
10.5754°
Arg. of periapsis
53.8432°
True anomaly
66.14381°
Mean anomaly
63.4312°
Eccentric anomaly
64.78364°
Mean motion
2.92494 °/min
Orbital period
123.08 mins
BSTAR
0.0181
Loading maneuver chart data...
Computing Atmospheric mass density...
Loading historical data...
Loading historical data...
Loading historical data...
Loading historical data...
Loading historical data...
Loading historical data...
Loading historical data...

Documentation

Showing up to 5 results
|